Home  > Rebate Center > Cooking > Range Hoods

Rebate Center: Range Hoods

Sort:

  • Mail In Rebates
  • Instant Savings
  • Free Delivery
  • Product Reviews
  • Top Ratings
  • Quick Ship

Displaying 61 - 80 of 268 Products 20 40 50 products per page  

1

2

3

4

5

6

7

Thermador Professional Series VCIB

Custom Hood Insert with 1,000 CFM Internal Blower, 3 Fan Speeds, Heat Sensor, Delayed Shut-Off, Filter Change Light and Stainless Steel Baffle Filters

VCIB36JP 36" Width 01/01/2016 - 12/31/2016 Save Up To $7,646 Instantly Download
VCIB48JP 48" Width 01/01/2016 - 12/31/2016 Save Up To $7,646 Instantly Download
VCIB54JP 54" Width 01/01/2016 - 12/31/2016 Save Up To $7,646 Instantly Download
Prizer Hoods Hampton Series HAMP

Wall Mount Chimney Range Hood with Optional Blowers, 3-Speed Fan Control, High-Heat Sensor, Halogen Lights, Handcrafted 16 Gauge Material and Baffle Filters

HAMP30SS 30" Width, Brushed Stainless Steel 01/01/2016 - 12/31/2016 Save $500 Download
HAMP36SS 36" Width, Brushed Stainless Steel 01/01/2016 - 12/31/2016 Save $500 Download
HAMP42SS 42" Width, Brushed Stainless Steel 01/01/2016 - 12/31/2016 Save $500 Download
HAMP48SS 48" Width, Brushed Stainless Steel 01/01/2016 - 12/31/2016 Save $500 Download
HAMP54SS 54" Width, Brushed Stainless Steel 01/01/2016 - 12/31/2016 Save $500 Download
HAMP60SS 60" Width, Brushed Stainless Steel 01/01/2016 - 12/31/2016 Save $500 Download
HAMP66SS 66" Width, Brushed Stainless Steel 01/01/2016 - 12/31/2016 Save $500 Download
BlueStar Manhattan Series BSMNHTTNBC

Brushed Copper Wall Mount Hood with 3-Speed Blower Options, Hidden Controls, Baffle Filters, Halogen Lamps and Top Discharge

BSMANH24BC 24" Width 01/01/2016 - 12/31/2016 Save $500 Download
BSMANH30BC 30" Width 01/01/2016 - 12/31/2016 Save $500 Download
BSMANH36BC 36" Width 01/01/2016 - 12/31/2016 Save $500 Download
BSMANH42BC 42" Width 01/01/2016 - 12/31/2016 Save $500 Download
BSMANH48BC 48" Width 01/01/2016 - 12/31/2016 Save $500 Download
BSMANH54BC 54" Width 01/01/2016 - 12/31/2016 Save $500 Download
BSMANH60BC 60" Width 01/01/2016 - 12/31/2016 Save $500 Download
BSMANH66BC 66" Width 01/01/2016 - 12/31/2016 Save $500 Download
BlueStar Manhattan Series BSMNHTTNSS

Wall Mount Hood with 3-Speed Blower Options, 750 Color Options, Hidden Controls, Dishwasher Safe Baffle Filters, Halogen Lamps and Top Discharge

BSMANH24SS 24" Width 01/01/2016 - 12/31/2016 Save $500 Download
BSMANH30SS 30" Width 01/01/2016 - 12/31/2016 Save $500 Download
BSMANH36SS 36" Width 01/01/2016 - 12/31/2016 Save $500 Download
BSMANH42SS 42" Width 01/01/2016 - 12/31/2016 Save $500 Download
BSMANH48SS 48" Width 01/01/2016 - 12/31/2016 Save $500 Download
BSMANH54SS 54" Width 01/01/2016 - 12/31/2016 Save $500 Download
BSMANH60SS 60" Width 01/01/2016 - 12/31/2016 Save $500 Download
BSMANH66SS 66" Width 01/01/2016 - 12/31/2016 Save $500 Download
Prizer Hoods Convex Curve Series CNVX

Wall Mount Range Hood with Optional Blowers, 3-Speed Fan Control, High-Heat Sensor, Halogen Lights, Handcrafted 16 Gauge Material and Baffle Filters

CNVX30SS 30" Width, Brushed Stainless Steel 01/01/2016 - 12/31/2016 Save $500 Download
CNVX36SS 36" Width, Brushed Stainless Steel 01/01/2016 - 12/31/2016 Save $500 Download
CNVX42SS 42" Width, Brushed Stainless Steel 01/01/2016 - 12/31/2016 Save $500 Download
CNVX48SS 48" Width, Brushed Stainless Steel 01/01/2016 - 12/31/2016 Save $500 Download
CNVX54SS 54" Width, Brushed Stainless Steel 01/01/2016 - 12/31/2016 Save $500 Download
CNVX60SS 60" Width, Brushed Stainless Steel 01/01/2016 - 12/31/2016 Save $500 Download
Smeg Classic Design KD90

36 Inch Wall Mount Chimney Range Hood with 600 CFM Internal Blower, 4 Speeds, Halogen Lights and Convertible to Recirculating

KD90XU Stainless Steel 07/01/2016 - 12/31/2016 Save up to $1,699 Download
BlueStar Proline Series BSPROLINE

Wall Mount Hood with 3-Speed Blower Options, Stainless Steel Construction, 750 Color Options, Hidden Controls, Dishwasher-Safe Filters, Dimming Halogen Lamps and Reversible Top/Rear Exhaust

BSPL24240TS 24" Width 01/01/2016 - 12/31/2016 Save $500 Download
BSPL30240TS 30" Width 01/01/2016 - 12/31/2016 Save $500 Download
BSPL36240TS 36" Width 01/01/2016 - 12/31/2016 Save $500 Download
BSPL42240TS 42" Width 01/01/2016 - 12/31/2016 Save $500 Download
BSPL48240TS 48" Width 01/01/2016 - 12/31/2016 Save $500 Download
BSPL54240TS 54" Width 01/01/2016 - 12/31/2016 Save $500 Download
BSPL60240TS 60" Width 01/01/2016 - 12/31/2016 Save $500 Download
BSPL66240TS 66" Width 01/01/2016 - 12/31/2016 Save $500 Download
Prizer Hoods Tahoe Series TAHOI

Island Chimney Range Hood with Optional Blowers, 3-Speed Fan Control, High-Heat Sensor, Halogen Lights, Handcrafted 16 Gauge Material and Baffle Filters

TAHOI36SS 36" Width, Brushed Stainless Steel 01/01/2016 - 12/31/2016 Save $500 Download
TAHOI42SS 42" Width, Brushed Stainless Steel 01/01/2016 - 12/31/2016 Save $500 Download
TAHOI48SS 48" Width, Brushed Stainless Steel 01/01/2016 - 12/31/2016 Save $500 Download
TAHOI54SS 54" Width, Brushed Stainless Steel 01/01/2016 - 12/31/2016 Save $500 Download
TAHOI60SS 60" Width, Brushed Stainless Steel 01/01/2016 - 12/31/2016 Save $500 Download
Prizer Hoods Wrangler Series WRAN

Wall Mount Chimney Range Hood with Optional Blowers, 3-Speed Fan Control, High-Heat Sensor, Halogen Lights, Handcrafted 16 Gauge Material and Baffle Filters

WRAN30SS 30" Width, Brushed Stainless Steel 01/01/2016 - 12/31/2016 Save $500 Download
WRAN36SS 36" Width, Brushed Stainless Steel 01/01/2016 - 12/31/2016 Save $500 Download
WRAN42SS 42" Width, Brushed Stainless Steel 01/01/2016 - 12/31/2016 Save $500 Download
WRAN48SS 48" Width, Brushed Stainless Steel 01/01/2016 - 12/31/2016 Save $500 Download
WRAN54SS 54" Width, Brushed Stainless Steel 01/01/2016 - 12/31/2016 Save $500 Download
WRAN60SS 60" Width, Brushed Stainless Steel 01/01/2016 - 12/31/2016 Save $500 Download
WRAN66SS 66" Width, Brushed Stainless Steel 01/01/2016 - 12/31/2016 Save $500 Download
BlueStar Manhattan Series BSMNHTTNBB

Brushed Brass Wall Mount Hood with 3-Speed Blower Options, Hidden Controls, Baffle Filters, Halogen Lamps and Top Discharge

BSMANH24BB 24" Width 01/01/2016 - 12/31/2016 Save $500 Download
BSMANH30BB 30" Width 01/01/2016 - 12/31/2016 Save $500 Download
BSMANH36BB 36" Width 01/01/2016 - 12/31/2016 Save $500 Download
BSMANH42BB 42" Width 01/01/2016 - 12/31/2016 Save $500 Download
BSMANH48BB 48" Width 01/01/2016 - 12/31/2016 Save $500 Download
BSMANH54BB 54" Width 01/01/2016 - 12/31/2016 Save $500 Download
BSMANH60BB 60" Width 01/01/2016 - 12/31/2016 Save $500 Download
BSMANH66BB 66" Width 01/01/2016 - 12/31/2016 Save $500 Download
BlueStar Manhattan Series BSMNHTTNIBB

Brushed Brass Island Hood with 3-Speed Blower Options, Hidden Controls, Baffle Filters, Halogen Lamps and Top Discharge

BSMANHI24BB 24" Width 01/01/2016 - 12/31/2016 Save $500 Download
BSMANHI30BB 30" Width 01/01/2016 - 12/31/2016 Save $500 Download
BSMANHI36BB 36" Width 01/01/2016 - 12/31/2016 Save $500 Download
BSMANHI42BB 42" Width 01/01/2016 - 12/31/2016 Save $500 Download
BSMANHI48BB 48" Width 01/01/2016 - 12/31/2016 Save $500 Download
BSMANHI54BB 54" Width 01/01/2016 - 12/31/2016 Save $500 Download
BSMANHI60BB 60" Width 01/01/2016 - 12/31/2016 Save $500 Download
BSMANHI66BB 66" Width 01/01/2016 - 12/31/2016 Save $500 Download
Prizer Hoods Santa Fe Series SNFE

Wall Mount Canopy Range Hood with Optional Blowers, 3-Speed Fan Control, High-Heat Sensor, Halogen Lights, Handcrafted 16 Gauge Material and Baffle Filters

SNFE302418SS 30" Width, Brushed Stainless Steel 01/01/2016 - 12/31/2016 Save $500 Download
SNFE362418SS 36" Width, Brushed Stainless Steel 01/01/2016 - 12/31/2016 Save $500 Download
SNFE422418SS 42" Width, Brushed Stainless Steel 01/01/2016 - 12/31/2016 Save $500 Download
SNFE482418SS 48" Width, Brushed Stainless Steel 01/01/2016 - 12/31/2016 Save $500 Download
SNFE542418SS 54" Width, Brushed Stainless Steel 01/01/2016 - 12/31/2016 Save $500 Download
SNFE602418SS 60" Width, Brushed Stainless Steel 01/01/2016 - 12/31/2016 Save $500 Download
SNFE662418SS 66" Width, Brushed Stainless Steel 01/01/2016 - 12/31/2016 Save $500 Download
Viking Professional Series VWH53648

36 Inch Pro-Style Wall Mount Range Hood with Optional Blowers, Heat Sensor, Heat Lamps, LED Lights, Commercial-Type Baffle Filters, Backlit Knobs and 18 Inch Height

VWH53648SS Stainless Steel 09/01/2016 - 12/31/2016 Instant Savings of up to $1,579 Download
VWH53648AR Apple Red 09/01/2016 - 12/31/2016 Instant Savings of up to $1,579 Download
VWH53648BK Black 09/01/2016 - 12/31/2016 Instant Savings of up to $1,579 Download
VWH53648BU Burgundy 09/01/2016 - 12/31/2016 Instant Savings of up to $1,579 Download
VWH53648CB Cobalt Blue 09/01/2016 - 12/31/2016 Instant Savings of up to $1,579 Download
VWH53648GG Graphite Gray 09/01/2016 - 12/31/2016 Instant Savings of up to $1,579 Download
VWH53648WH White 09/01/2016 - 12/31/2016 Instant Savings of up to $1,579 Download
BlueStar Incline Series BSINCLINEBC

Brushed Copper Wall Mount Hood with 3-Speed Blower Options, Hidden Controls, Baffle Filters, Halogen Lamps and Reversible Top/Rear Exhaust

BSINCL30BC 30" Width 01/01/2016 - 12/31/2016 Save $500 Download
BSINCL36BC 36" Width 01/01/2016 - 12/31/2016 Save $500 Download
BSINCL42BC 42" Width 01/01/2016 - 12/31/2016 Save $500 Download
BSINCL48BC 48" Width 01/01/2016 - 12/31/2016 Save $500 Download
BSINCL54BC 54" Width 01/01/2016 - 12/31/2016 Save $500 Download
BSINCL60BC 60" Width 01/01/2016 - 12/31/2016 Save $500 Download
BSINCL66BC 66" Width 01/01/2016 - 12/31/2016 Save $500 Download
Wolf PW2718

Wall Mount Canopy Range Hood with Infinite-Speed Blower Control, Automatic Heat Sentry, Heat Lamps, Baffle Filters and 27 Inch Depth

PW302718 30" Width 07/01/2016 - 03/31/2017 Receive a $1,000 Rebate or Free Wolf Gourmet Products Download
PW362718 36" Width 07/01/2016 - 03/31/2017 Receive a $1,000 Rebate or Free Wolf Gourmet Products Download
PW422718 42" Width 07/01/2016 - 03/31/2017 Receive a $1,000 Rebate or Free Wolf Gourmet Products Download
PW482718 48" Width 07/01/2016 - 03/31/2017 Receive a $1,000 Rebate or Free Wolf Gourmet Products Download
PW542718 54" Width 07/01/2016 - 03/31/2017 Receive a $1,000 Rebate or Free Wolf Gourmet Products Download
PW602718 60" Width 07/01/2016 - 03/31/2017 Receive a $1,000 Rebate or Free Wolf Gourmet Products Download
PW662718 66" Width 07/01/2016 - 03/31/2017 Receive a $1,000 Rebate or Free Wolf Gourmet Products Download
BlueStar Hampton Series BSHAMPTONIBB

Brushed Brass Island Hood with 3-Speed Blower Options, Hidden Controls, Baffle Filters, Halogen Lamps and Top Exhaust

BSHAMPI30BB 30" Width 01/01/2016 - 12/31/2016 Save $500 Download
BSHAMPI36BB 36" Width 01/01/2016 - 12/31/2016 Save $500 Download
BSHAMPI42BB 42" Width 01/01/2016 - 12/31/2016 Save $500 Download
BSHAMPI48BB 48" Width 01/01/2016 - 12/31/2016 Save $500 Download
BSHAMPI54BB 54" Width 01/01/2016 - 12/31/2016 Save $500 Download
BSHAMPI60BB 60" Width 01/01/2016 - 12/31/2016 Save $500 Download
BSHAMPI66BB 66" Width 01/01/2016 - 12/31/2016 Save $500 Download
BlueStar Santa Fe Series BSSANTAFESS

Wall Mount Hood with 3-Speed Blower Options, 750 Color Options, Hidden Controls, Dishwasher Safe Baffle Filters, Halogen Lamps and Reversible Top/Rear Exhaust

BSSNFE302418SS 30" Width 01/01/2016 - 12/31/2016 Save $500 Download
BSSNFE362418SS 36" Width 01/01/2016 - 12/31/2016 Save $500 Download
BSSNFE422418SS 42" Width 01/01/2016 - 12/31/2016 Save $500 Download
BSSNFE482418SS 48" Width 01/01/2016 - 12/31/2016 Save $500 Download
BSSNFE542418SS 54" Width 01/01/2016 - 12/31/2016 Save $500 Download
BSSNFE602418SS 60" Width 01/01/2016 - 12/31/2016 Save $500 Download
BSSNFE662418SS 66" Width 01/01/2016 - 12/31/2016 Save $500 Download
Prizer Hoods Pagoda Series PAGO

Wall Mount Range Hood with Optional Blowers, 3-Speed Fan Control, High-Heat Sensor, Halogen Lights, Handcrafted 16 Gauge Material and Baffle Filters

PAGO30SS 30" Width, Brushed Stainless Steel 01/01/2016 - 12/31/2016 Save $500 Download
PAGO36SS 36" Width, Brushed Stainless Steel 01/01/2016 - 12/31/2016 Save $500 Download
PAGO42SS 42" Width, Brushed Stainless Steel 01/01/2016 - 12/31/2016 Save $500 Download
PAGO48SS 48" Width, Brushed Stainless Steel 01/01/2016 - 12/31/2016 Save $500 Download
PAGO54SS 54" Width, Brushed Stainless Steel 01/01/2016 - 12/31/2016 Save $500 Download
PAGO60SS 60" Width, Brushed Stainless Steel 01/01/2016 - 12/31/2016 Save $500 Download
Viking Professional Series VWH53048

30 Inch Pro-Style Wall Mount Range Hood with Optional Blowers, Heat Sensor, Heat Lamps, LED Lights, Commercial-Type Baffle Filters, Backlit Knobs and 18 Inch Height

VWH53048SS Stainless Steel 09/01/2016 - 12/31/2016 Instant Savings of up to $1,579 Download
VWH53048AR Apple Red 09/01/2016 - 12/31/2016 Instant Savings of up to $1,579 Download
VWH53048BK Black 09/01/2016 - 12/31/2016 Instant Savings of up to $1,579 Download
VWH53048BU Burgundy 09/01/2016 - 12/31/2016 Instant Savings of up to $1,579 Download
VWH53048CB Cobalt Blue 09/01/2016 - 12/31/2016 Instant Savings of up to $1,579 Download
VWH53048GG Graphite Gray 09/01/2016 - 12/31/2016 Instant Savings of up to $1,579 Download
VWH53048WH White 09/01/2016 - 12/31/2016 Instant Savings of up to $1,579 Download
BlueStar Manhattan Series BSMNHTTNIBC

Brushed Copper Island Hood with 3-Speed Blower Options, Hidden Controls, Baffle Filters, Halogen Lamps and Top Discharge

BSMANHI24BC 24" Width 01/01/2016 - 12/31/2016 Save $500 Download
BSMANHI30BC 30" Width 01/01/2016 - 12/31/2016 Save $500 Download
BSMANHI36BC 36" Width 01/01/2016 - 12/31/2016 Save $500 Download
BSMANHI42BC 42" Width 01/01/2016 - 12/31/2016 Save $500 Download
BSMANHI48BC 48" Width 01/01/2016 - 12/31/2016 Save $500 Download
BSMANHI54BC 54" Width 01/01/2016 - 12/31/2016 Save $500 Download
BSMANHI60BC 60" Width 01/01/2016 - 12/31/2016 Save $500 Download
BSMANHI66BC 66" Width 01/01/2016 - 12/31/2016 Save $500 Download

Sort:

Displaying 61 - 80 of 268 Products 20 40 50 products per page  

1

2

3

4

5

6

7

Expand Your Results

Remove Category:

Are you a builder
Quick LookQuick Look